Wind_Speed
9 8 7 7 6 6 5 6 7 7 7 7 7 7 7 8 9 9 8 7 7 6 7 7 7 6 6 7 7 7 6 6 5 5 4 5 5 4 5 7 7 7 6 5 4 4 4 3 3 3 3 1 0 1 3 4 5 4 5 7 8 7 7 5 5 5 5 5 4 4 5 4 4 4 4 5 5 5 5 5 5 4 5 5 5
5 5 6 6 5 5 4 5 6 7 7 7 6 7 7 8 8 8 8 7 6 6 7 7 7 7 7 7 7 7 7 6 5 5 4 5 5 4 5 7 8 7 7 6 5 4 4 4 4 3 3 2 2 0 2 3 4 4 4 5 6 7 7 7 6 5 4 4 4 4 3 3 3 3 4 4 4 4 4 4 3 3 5 5 4
4 5 7 7 5 5 6 7 7 6 6 5 5 7 6 6 8 8 8 7 7 6 6 7 7 7 7 7 7 7 7 6 6 5 5 5 6 5 5 5 7 8 7 6 5 5 4 5 4 3 2 2 3 2 0 1 1 1 1 2 4 5 6 7 6 6 5 4 3 2 2 2 2 2 3 4 3 3 3 3 3 4 4 4 4
6 8 8 7 6 7 8 9 9 8 7 5 6 7 7 6 8 8 7 7 7 6 6 6 6 6 6 7 7 7 6 6 6 6 6 5 6 6 5 4 6 7 7 7 6 5 5 5 5 4 3 2 3 3 2 1 1 1 2 4 4 4 5 6 6 5 4 5 4 3 3 2 2 2 2 2 2 2 3 3 3 4 3 3 3
9 11 9 7 7 7 7 9 9 8 7 7 7 8 7 7 8 8 7 7 6 6 6 5 5 5 5 7 7 6 5 6 6 6 6 6 5 6 5 5 5 5 6 6 6 6 5 5 5 5 3 3 4 3 3 2 2 2 3 4 3 2 3 4 5 4 3 4 4 4 4 4 3 2 2 1 1 1 2 2 3 3 3 3 3
12 12 11 9 8 7 7 8 8 6 5 7 8 9 8 7 7 8 7 6 6 7 6 5 4 4 4 4 5 4 4 5 6 6 5 5 5 5 4 4 4 4 4 5 5 5 5 4 5 5 4 3 3 3 3 3 2 2 3 4 3 2 3 2 3 3 2 2 2 3 4 5 4 3 3 2 1 0 1 2 2 3 3 3 3
9 7 7 7 7 6 6 7 6 5 4 5 8 8 8 7 6 7 7 6 6 6 6 6 5 4 3 3 3 3 4 4 5 5 4 4 4 4 2 2 3 3 4 5 4 4 4 3 3 3 3 3 3 3 3 3 2 2 3 3 3 3 3 3 3 3 2 1 2 2 3 4 4 4 4 3 2 1 1 2 2 3 4 3 3
4 4 5 5 5 5 4 5 5 4 2 2 5 5 6 6 5 5 6 6 5 6 5 6 5 4 3 2 2 2 3 3 4 4 3 2 2 3 3 2 2 2 2 3 3 2 2 1 2 2 2 2 2 3 3 3 3 3 3 4 4 4 3 3 4 3 2 1 1 2 3 3 3 4 4 4 3 2 2 2 2 3 3 4 4
2 3 3 4 4 3 3 4 4 3 2 2 2 3 4 5 5 4 5 5 6 6 5 5 5 4 3 2 1 2 1 1 2 2 1 1 2 3 4 2 1 1 1 1 2 1 0 1 1 1 1 2 2 2 2 3 4 4 5 6 6 6 5 5 4 3 3 4 3 2 2 3 3 4 5 5 4 3 3 3 3 3 3 4 5
2 2 3 3 3 4 4 3 3 3 2 2 2 2 3 4 5 5 5 5 6 6 6 6 6 5 4 3 3 3 1 1 1 0 2 1 2 2 2 1 1 1 1 1 1 1 1 2 2 2 1 2 3 3 3 3 3 4 5 5 7 7 7 7 5 4 4 4 5 6 5 4 4 4 5 5 5 4 3 3 4 4 4 4 4
2 3 3 3 3 5 5 4 3 3 2 2 2 2 3 3 4 5 5 6 5 5 6 6 6 6 5 4 3 2 0 1 0 1 1 1 4 4 2 3 3 2 2 2 1 1 1 2 2 1 1 3 4 5 5 5 5 5 5 6 6 7 8 8 8 6 5 5 5 7 7 7 6 5 5 6 5 5 4 4 4 5 5 4 4
1 2 3 4 4 4 4 4 3 2 3 3 3 3 3 4 4 5 5 6 5 5 7 7 7 6 6 4 3 2 1 1 1 1 1 1 3 2 1 2 1 1 1 1 1 1 1 1 1 0 2 4 5 4 3 3 5 5 5 6 7 7 7 7 8 8 7 7 7 7 8 9 9 8 7 7 6 6 6 5 5 5 5 5 5
1 2 3 3 3 2 2 3 3 3 3 4 3 3 4 4 4 5 6 6 6 6 7 8 8 7 6 6 4 3 2 2 2 2 2 2 1 1 1 2 2 1 1 1 1 2 2 2 3 2 2 2 4 5 5 4 4 5 5 6 5 6 8 7 8 8 8 9 10 9 9 10 10 10 9 9 8 7 7 7 6 6 6 6 6
3 3 4 3 2 2 2 2 2 3 3 3 4 4 4 5 5 6 7 7 6 6 8 8 8 8 7 7 6 5 4 4 3 3 3 3 2 2 2 2 3 2 2 2 3 3 3 4 4 4 4 2 2 3 3 4 5 7 7 6 5 5 7 7 7 8 8 8 10 11 11 11 11 10 10 10 9 9 9 8 8 7 7 7 7
4 4 4 3 2 2 2 2 2 3 3 4 4 4 5 6 6 6 7 7 6 6 9 9 7 7 7 5 5 5 5 5 5 4 3 4 3 3 3 3 3 3 3 3 4 4 4 5 5 5 5 4 3 3 3 2 4 5 5 5 4 5 5 6 7 7 7 8 9 11 11 12 13 12 11 10 10 10 10 10 9 9 8 8 8
4 4 3 3 2 2 2 2 3 4 4 4 5 5 5 6 6 7 7 7 6 7 8 7 5 5 5 3 4 4 3 5 7 5 4 5 5 4 4 4 4 4 4 4 4 5 5 6 6 6 5 5 4 3 3 3 6 8 7 5 3 4 5 6 7 7 7 7 7 9 11 12 14 14 13 12 12 11 10 10 10 10 9 9 9
3 3 3 3 2 1 1 1 2 3 3 4 4 5 5 6 6 7 8 7 6 7 8 7 6 6 4 2 3 3 2 7 8 5 5 5 5 5 5 4 4 4 5 5 5 6 6 6 7 6 6 6 5 4 4 4 5 6 6 5 4 4 4 4 6 8 9 10 7 7 10 12 13 14 15 15 14 13 12 11 11 11 11 10 10
3 3 3 3 3 2 1 1 1 2 3 3 4 5 6 6 7 7 8 8 7 7 7 7 6 7 6 3 2 2 2 8 7 4 6 7 6 6 6 6 6 6 7 7 7 7 7 7 8 8 8 7 7 8 8 7 4 3 4 5 6 6 5 3 4 5 8 9 8 7 9 11 12 13 15 16 16 15 14 14 13 12 12 12 11
3 3 3 4 4 4 3 2 1 1 2 3 4 5 6 6 6 7 7 7 8 8 7 6 6 7 7 5 3 3 3 6 5 4 6 6 6 7 7 8 9 9 9 9 8 8 8 8 9 9 10 10 10 10 10 10 8 7 7 7 7 7 6 4 3 3 5 7 9 11 12 12 13 13 14 15 16 16 16 16 15 15 14 13 12
3 3 3 4 4 3 3 3 2 2 2 2 3 3 4 5 6 6 6 7 9 9 8 7 6 6 6 6 5 4 5 6 5 5 6 5 6 7 8 10 10 11 10 10 10 10 9 9 9 10 10 11 11 11 11 10 10 10 10 10 9 9 8 6 5 4 4 5 6 7 9 10 11 12 14 15 16 17 18 17 16 16 16 15 14
3 3 3 3 3 3 2 3 3 2 3 2 3 3 4 4 5 6 6 6 7 8 8 8 6 6 7 7 6 6 6 5 5 5 6 6 6 7 8 8 9 10 10 10 10 10 10 10 10 10 10 11 11 11 11 11 10 10 10 9 9 9 9 9 8 6 5 4 2 3 4 5 5 7 11 14 14 15 16 17 18 19 19 17 16
3 3 3 3 3 3 2 3 4 4 4 4 4 4 3 4 4 5 6 7 6 6 7 7 6 7 7 7 7 7 7 7 7 7 7 7 6 8 9 8 8 9 8 9 9 9 9 9 9 10 10 10 11 12 13 12 11 10 9 8 8 8 8 9 8 7 6 4 4 3 3 4 4 4 8 9 10 11 13 15 16 18 19 18 17
3 4 4 3 4 3 3 4 5 5 4 4 4 3 3 3 4 5 5 6 6 6 7 7 6 7 6 6 6 6 6 7 8 8 7 6 6 7 9 9 9 9 8 8 8 8 9 9 9 9 9 9 10 11 12 12 12 11 9 8 7 7 7 7 7 6 5 5 4 4 3 3 4 5 6 7 7 7 10 12 14 16 16 17 18
4 5 4 4 4 3 3 5 6 5 4 4 4 4 3 3 3 4 4 5 6 6 7 8 7 7 6 5 5 5 5 5 7 7 6 6 7 6 8 9 8 9 10 8 8 8 8 8 9 9 9 9 9 10 10 11 11 10 9 9 8 8 9 8 7 6 6 6 6 6 6 6 5 5 5 5 5 5 5 7 9 11 12 14 16
5 5 5 4 4 4 4 5 6 5 5 5 5 5 4 4 4 5 5 5 5 6 7 8 7 7 7 6 5 5 4 4 5 5 5 7 7 6 7 8 7 8 9 8 8 8 8 8 8 8 9 9 9 9 9 9 9 9 9 9 9 9 9 8 8 7 7 7 6 6 6 7 7 6 4 3 3 3 4 5 5 6 7 9 11
6 6 5 4 5 6 5 6 6 6 6 6 6 5 4 5 5 6 6 6 6 7 8 8 7 6 6 5 6 5 5 5 5 5 6 6 7 6 6 7 6 7 8 7 7 6 7 7 7 8 8 8 8 8 8 8 7 8 9 9 9 9 9 8 7 7 6 7 7 6 5 5 5 5 4 4 3 3 4 6 6 7 7 8 9
7 6 5 6 7 8 7 7 7 6 6 6 6 6 5 5 6 6 7 7 7 8 8 8 7 6 5 5 6 6 6 5 5 5 5 5 6 6 6 6 5 5 6 6 6 5 6 6 7 7 7 7 7 6 7 6 6 8 8 7 7 7 7 8 7 6 6 6 6 6 5 5 5 5 5 5 5 5 6 7 7 8 9 9 10
8 7 6 7 8 9 8 8 7 7 7 6 6 6 5 6 6 6 6 6 6 6 6 7 6 6 6 6 7 7 7 6 5 5 4 4 6 6 6 6 5 4 5 5 5 5 4 4 6 7 6 6 6 5 6 4 4 7 7 4 5 6 6 6 6 6 6 6 6 5 5 5 5 6 6 6 6 6 6 8 8 9 9 10 11
9 8 8 8 9 9 9 9 8 8 7 6 6 6 5 6 6 6 6 5 6 6 5 6 6 7 7 7 8 8 8 7 7 7 6 5 6 6 5 5 4 4 4 4 4 5 4 3 4 6 5 5 5 5 5 4 3 5 5 3 4 6 6 6 7 7 7 8 8 8 7 7 7 7 7 7 7 7 7 7 8 8 9 10 11
10 9 9 9 10 9 9 9 9 10 9 8 7 6 6 6 7 6 6 5 6 6 6 7 7 7 8 8 8 8 8 8 8 7 7 7 6 5 4 3 2 2 3 4 4 4 5 4 4 5 5 5 5 4 4 3 3 4 4 3 3 6 7 7 8 8 9 9 9 10 10 10 10 10 10 10 10 10 10 9 10 10 10 10 11
11 10 9 9 10 9 9 9 10 10 10 9 8 7 7 8 8 7 7 7 7 7 7 7 7 7 8 8 8 8 7 7 7 7 7 7 7 6 6 5 5 4 3 4 5 3 4 5 5 4 4 4 4 4 4 3 4 5 3 2 3 6 7 8 9 9 9 9 9 9 10 10 11 12 12 13 13 13 13 13 13 13 13 13 13
11 11 10 10 10 10 10 9 10 10 10 9 9 8 8 8 8 9 8 8 9 9 8 8 7 8 8 8 8 7 7 7 7 6 6 6 6 7 7 7 7 5 3 4 6 6 4 4 4 4 3 3 3 3 3 2 3 4 3 1 3 6 5 6 10 11 9 9 9 9 9 10 11 12 13 13 14 15 15 16 16 16 16 16 16
11 11 11 10 10 10 10 10 9 9 9 9 9 8 8 8 8 9 9 9 9 9 9 8 8 7 7 7 7 6 6 6 6 6 6 6 6 6 6 6 6 5 4 5 7 7 5 4 4 4 2 2 2 3 2 1 1 1 1 1 2 3 2 4 8 10 10 8 8 8 9 10 11 12 13 14 14 15 16 16 17 18 18 18 19
11 11 11 11 11 10 10 10 10 9 9 9 8 8 8 8 7 7 7 7 7 7 7 7 7 6 6 6 6 6 5 5 5 5 6 5 5 5 5 5 5 5 4 4 5 6 6 4 4 4 3 1 1 1 1 1 1 2 1 1 2 1 3 4 4 8 11 9 7 8 9 9 11 12 13 14 14 16 16 17 17 18 18 19 20
10 10 11 12 12 11 11 10 10 10 9 9 9 8 8 8 7 6 6 5 6 6 6 6 6 5 5 4 5 4 4 5 4 4 5 4 3 5 5 5 5 5 4 3 3 4 5 5 4 4 3 1 0 1 0 1 1 2 3 3 3 2 3 5 4 6 10 10 8 8 9 10 11 11 12 13 13 14 15 16 17 18 19 19 20
10 10 11 12 12 12 12 11 11 10 10 9 9 8 8 8 7 7 6 5 5 5 4 5 5 5 4 4 4 3 3 4 4 4 4 3 3 4 5 5 5 5 4 3 3 3 3 4 3 2 2 1 1 0 2 3 3 3 3 4 5 4 4 6 6 6 11 14 14 13 14 14 14 13 13 13 13 13 14 15 16 17 18 19 20
11 11 11 11 12 12 12 12 12 11 10 10 9 9 8 7 7 7 6 6 5 5 4 4 4 4 4 4 4 4 3 3 3 3 3 3 3 4 4 4 4 4 3 2 2 1 1 3 3 1 1 1 1 1 2 4 4 5 5 5 6 5 6 8 8 7 11 14 16 17 19 18 17 17 15 13 13 12 12 13 14 15 17 18 19
12 12 11 11 11 12 12 12 12 12 11 11 10 9 9 8 7 7 7 6 6 6 5 5 5 5 5 4 4 5 5 4 3 3 3 3 3 3 3 3 3 4 3 2 2 1 0 1 2 2 2 1 2 2 2 4 6 5 6 8 8 6 7 9 10 8 8 9 11 14 16 16 16 18 18 17 15 12 12 13 13 13 15 17 18
13 13 12 12 12 12 13 13 13 13 12 11 11 10 9 9 8 7 6 6 6 6 6 6 6 7 7 7 7 7 7 6 6 5 4 4 4 4 4 3 3 3 3 2 1 1 1 2 2 2 2 2 2 3 3 3 5 5 6 10 10 9 9 10 12 10 7 8 11 13 15 16 17 17 18 18 16 15 16 15 14 13 14 15 16
12 13 13 14 13 13 13 13 13 13 12 12 11 11 9 8 7 6 6 6 6 6 6 7 7 8 9 9 10 10 10 10 10 9 7 6 6 6 5 5 4 4 3 2 3 3 3 3 3 3 4 5 4 5 5 5 5 6 7 9 11 12 12 12 13 11 8 9 11 12 14 16 16 15 16 16 15 16 18 17 14 14 15 15 16
13 13 14 15 15 15 15 14 14 13 12 12 12 13 11 9 7 6 5 5 6 6 7 7 8 9 9 9 11 12 12 12 12 11 10 10 9 7 6 5 4 4 4 4 4 5 6 6 6 6 7 9 9 8 8 6 6 8 8 9 11 12 14 14 14 12 9 9 12 13 14 14 13 13 13 12 11 14 16 14 9 11 16 19 19
13 12 13 15 16 16 16 16 16 14 14 14 15 15 15 12 8 5 5 5 6 7 7 8 8 8 9 9 10 12 13 13 13 12 12 13 13 10 7 7 7 6 5 5 5 5 6 7 7 6 8 10 9 9 9 7 6 8 8 10 11 13 14 14 14 12 9 9 12 16 17 15 13 14 13 11 11 12 11 9 9 13 18 20 19
12 12 13 14 15 15 15 16 17 17 15 15 16 17 16 13 9 6 4 5 5 6 7 8 8 9 9 9 9 10 11 12 13 13 13 15 16 16 13 11 10 9 7 5 5 4 5 7 7 6 7 8 8 10 10 7 7 9 10 11 12 12 13 13 14 13 9 9 14 19 20 16 13 14 14 13 12 12 11 12 16 18 19 18 18
12 12 13 15 15 15 15 15 17 18 19 18 17 17 17 15 11 8 6 7 7 8 9 9 9 10 10 9 7 6 7 9 10 10 12 15 17 18 18 15 13 13 11 7 5 2 4 6 7 7 7 7 9 11 9 7 9 10 11 11 11 12 13 13 15 15 13 13 16 19 19 16 13 14 15 13 13 13 14 16 19 20 19 19 20
13 14 15 16 16 17 17 17 17 18 21 21 20 19 18 17 14 12 10 10 9 9 10 10 10 10 10 7 6 5 6 8 7 7 10 14 17 19 18 16 15 14 12 9 6 4 4 4 6 6 6 6 9 9 7 7 10 10 11 12 12 12 14 14 16 18 18 17 16 16 18 16 14 14 15 14 14 14 14 17 19 21 22 22 21
13 14 16 17 18 18 18 18 18 18 20 22 23 21 19 18 16 13 10 8 6 7 9 9 8 9 7 5 5 5 5 6 6 8 10 13 16 18 15 13 12 11 8 7 5 4 4 3 4 5 4 5 7 6 6 8 9 9 11 12 13 14 15 17 19 20 19 16 13 13 16 15 14 14 15 16 15 15 15 17 19 22 23 22 21
11 12 14 15 15 16 16 16 16 17 20 23 25 23 21 20 17 13 9 7 6 8 10 9 7 7 6 5 5 5 5 6 8 10 10 11 13 14 12 10 9 8 8 7 5 4 3 2 2 3 3 5 6 6 6 7 7 9 11 13 14 16 16 17 17 17 16 14 11 12 15 15 14 16 16 15 15 16 16 16 19 22 22 21 21
11 11 12 12 13 13 13 14 14 14 16 20 23 22 20 19 17 13 11 11 10 9 8 7 5 5 5 5 5 6 7 7 9 11 10 11 13 13 12 11 9 9 9 8 6 6 5 5 5 6 7 9 10 10 10 11 10 10 11 13 15 15 15 16 16 15 14 12 10 11 15 16 15 16 17 16 16 18 18 17 18 19 18 19 20
11 12 13 13 12 12 11 12 13 12 13 17 20 19 19 19 17 14 13 13 12 10 8 6 5 6 7 7 6 6 7 8 9 11 13 14 13 12 12 10 8 7 7 7 6 7 7 8 9 10 10 11 12 13 14 14 14 13 12 13 13 13 14 15 15 15 14 13 12 12 15 16 14 15 17 17 16 18 19 17 16 15 16 18 18
9 10 12 12 11 11 11 12 13 12 13 17 19 18 19 20 17 13 13 13 12 10 9 8 7 8 10 10 9 8 9 11 12 14 15 13 10 10 10 9 7 6 5 5 5 6 7 8 9 10 11 12 14 15 15 15 16 14 12 13 13 13 14 15 15 15 15 14 12 10 12 15 15 15 17 18 17 17 16 14 13 13 16 18 17
8 8 9 10 10 10 10 12 14 13 13 17 19 19 20 20 16 12 10 11 12 11 11 10 9 9 10 10 10 9 10 12 13 14 14 11 7 8 8 7 6 6 5 4 4 3 4 6 7 8 10 13 13 13 13 14 16 16 12 12 12 13 14 15 15 15 13 12 9 9 12 15 15 15 17 17 15 14 13 13 13 14 17 17 17
Wind_Direction
191 175 180 195 194 191 194 193 197 199 195 193 186 178 174 171 168 167 162 156 157 162 168 172 172 165 159 159 164 165 161 159 156 148 133 128 128 104 108 128 135 138 142 139 138 150 161 155 150 152 135 116 64 36 35 37 32 40 46 42 42 40 42 50 56 57 57 59 64 74 80 91 89 83 82 71 66 75 80 77 76 88 81 62 57
198 180 195 212 206 201 210 218 218 212 204 198 189 181 174 171 169 165 161 156 154 160 170 170 168 166 161 157 160 164 162 163 162 154 142 132 134 126 117 125 129 133 136 134 135 136 152 163 159 157 143 135 147 128 25 47 34 30 40 39 35 31 28 28 31 33 42 53 61 75 77 84 96 98 102 94 80 78 89 85 74 112 110 80 67
211 209 207 215 220 213 213 227 230 220 223 214 184 180 169 165 169 163 159 158 152 156 168 169 166 167 166 164 165 168 167 169 167 160 153 142 139 137 126 121 125 130 130 134 141 132 133 153 156 154 158 146 145 161 69 54 18 360 10 13 16 20 20 15 11 13 21 32 41 66 68 70 87 95 106 111 111 104 106 100 87 108 112 87 78
229 228 216 216 230 233 222 224 226 216 222 216 188 183 162 154 164 161 160 157 151 153 161 168 167 167 170 171 171 174 176 181 177 170 164 154 145 140 138 133 129 129 130 136 147 139 127 141 152 151 157 156 157 171 171 192 242 221 271 313 340 356 8 11 5 356 358 11 18 30 34 37 50 60 88 110 127 128 123 121 111 111 107 98 94
238 234 228 228 233 242 236 230 229 215 205 196 194 188 162 153 160 158 160 158 154 151 151 164 170 170 176 178 180 181 184 188 184 177 168 157 152 144 146 151 143 137 132 133 146 153 145 146 155 151 144 151 169 182 174 192 218 185 241 293 316 320 337 1 3 349 335 349 1 9 11 11 14 22 40 72 109 122 119 127 126 122 123 136 135
236 233 233 236 233 237 240 238 238 226 202 187 187 185 168 158 160 161 163 162 158 154 154 163 173 180 186 186 186 187 192 190 181 182 176 160 154 145 147 152 149 150 143 132 130 148 156 156 161 155 139 133 156 181 182 190 214 202 228 273 288 274 279 322 352 356 335 335 348 354 355 355 358 4 10 14 16 126 134 149 147 147 154 161 157
232 225 227 231 231 232 238 242 244 239 225 193 186 184 170 158 160 162 164 166 161 156 157 160 170 188 194 203 200 197 211 202 188 194 189 172 158 144 154 158 154 164 157 147 126 126 147 155 161 163 155 142 139 159 180 192 215 220 232 270 290 282 269 289 321 332 318 349 21 9 355 346 342 348 352 351 330 278 205 185 173 174 170 171 183
229 217 216 218 226 225 228 237 236 234 238 207 191 178 160 154 157 160 166 177 175 164 161 161 167 175 171 190 209 208 228 208 199 211 199 174 128 126 163 171 163 177 166 168 154 122 122 148 175 195 195 182 156 163 182 198 214 223 228 250 277 298 296 290 298 299 276 272 349 11 8 350 335 329 329 332 325 300 256 216 207 204 182 180 190
208 212 197 189 204 209 220 238 235 223 210 193 186 158 150 155 152 162 178 189 192 176 169 169 166 161 141 122 150 175 214 195 191 208 158 87 42 125 158 156 150 189 170 195 209 205 284 346 276 258 260 261 245 213 207 214 220 224 225 231 247 272 296 298 285 280 264 259 274 284 317 336 334 322 312 309 304 293 276 243 234 232 208 197 192
171 172 170 168 183 194 201 225 235 217 193 190 194 164 156 157 155 171 189 197 199 181 171 170 161 157 145 140 174 176 106 57 149 83 75 71 268 228 189 214 253 267 276 236 255 280 298 350 347 308 293 305 288 272 269 271 265 254 244 240 237 241 259 276 277 295 301 278 271 266 270 291 309 315 309 298 275 258 268 261 252 247 228 215 203
157 160 166 164 183 205 197 196 226 219 205 210 214 200 165 158 170 182 194 201 197 175 165 162 151 150 149 153 177 180 91 35 45 12 50 258 259 261 260 255 253 263 267 267 304 322 319 356 348 285 326 357 312 276 266 275 281 283 280 274 269 254 250 254 258 274 295 298 286 272 272 277 281 289 296 294 276 250 247 256 266 263 249 234 220
165 161 153 158 182 217 198 184 211 208 213 224 221 219 184 173 190 193 202 203 188 173 167 163 153 146 148 154 167 172 142 83 66 72 136 211 245 246 215 213 227 242 252 279 300 336 352 24 41 33 23 358 338 322 303 300 293 288 287 284 286 280 267 257 251 251 253 264 271 267 275 280 277 277 280 285 285 267 245 242 255 257 253 247 233
127 140 134 143 168 201 201 193 205 192 199 217 209 205 189 184 193 197 207 203 186 178 174 171 164 158 158 159 164 164 136 124 118 111 121 135 161 175 164 156 149 139 81 66 53 49 55 64 65 68 63 5 348 352 354 357 336 314 310 303 296 284 278 267 257 253 246 249 257 257 264 274 276 274 275 278 282 275 254 246 256 254 250 248 236
108 124 126 124 147 182 205 192 189 178 179 194 190 184 183 182 185 194 209 211 200 187 181 187 186 175 168 162 162 159 140 129 115 100 113 116 120 129 128 134 124 106 89 84 82 76 75 67 57 58 65 64 39 12 11 11 326 310 312 312 318 315 299 279 264 263 262 263 264 261 261 265 270 269 270 275 278 278 267 262 270 264 250 246 238
111 114 120 124 145 165 180 180 168 167 176 184 181 180 182 181 184 195 206 206 204 197 193 203 207 182 172 181 178 161 155 155 132 106 115 116 118 126 122 121 112 103 95 80 68 64 62 58 56 57 56 54 51 42 53 37 337 334 329 308 311 319 310 292 275 265 263 269 272 271 268 265 267 267 266 267 269 272 271 269 274 269 256 248 241
114 114 113 116 130 151 161 171 172 172 183 185 178 179 182 181 183 193 204 201 196 201 201 209 221 199 190 209 185 159 172 169 138 114 119 118 112 112 105 103 101 97 93 83 69 59 55 52 54 55 53 49 39 36 58 31 8 11 3 339 322 309 305 301 290 276 266 269 271 274 274 269 266 264 262 262 260 258 262 264 267 268 263 256 246
109 106 102 99 99 119 138 160 175 175 178 176 170 171 174 180 186 193 207 209 199 201 202 205 224 228 238 257 183 180 182 157 141 117 112 108 102 105 98 88 87 83 78 75 72 66 60 57 57 56 50 45 34 30 50 45 27 21 3 358 12 357 338 315 292 282 277 275 276 276 274 273 270 261 255 258 255 249 251 256 258 263 265 263 255
105 90 93 102 106 113 116 166 196 182 182 180 167 167 172 177 188 198 204 202 198 198 194 197 215 228 241 260 252 258 186 159 158 130 114 103 92 96 95 87 82 78 73 69 69 67 63 62 63 61 56 53 49 49 56 52 41 32 7 4 15 17 11 343 289 273 270 264 261 263 264 268 270 261 254 257 253 246 248 250 251 260 262 260 255
112 91 92 99 100 108 120 130 151 172 193 197 181 180 179 172 181 198 197 191 193 195 187 186 196 212 228 238 252 264 195 175 178 151 137 120 101 95 89 85 81 77 75 72 71 69 66 66 67 65 62 60 58 59 60 52 41 35 28 21 17 17 16 2 335 289 265 251 250 258 258 258 264 261 255 259 256 247 249 250 253 259 258 255 254
118 108 101 96 89 97 118 120 120 140 157 175 173 166 161 154 165 183 187 191 199 198 190 190 194 194 204 216 228 222 194 194 198 169 152 137 127 109 90 86 83 80 78 75 75 75 71 69 69 69 66 64 63 63 61 55 50 45 41 37 32 29 25 15 3 341 308 274 265 272 273 269 269 264 259 262 260 252 250 252 256 261 259 255 255
117 117 107 94 90 93 119 126 117 123 120 118 116 108 118 137 157 171 175 189 205 202 192 192 195 186 185 193 198 191 180 184 198 183 157 146 142 121 109 103 92 84 81 82 81 79 76 72 70 71 70 68 67 65 64 63 57 49 43 39 36 38 36 30 22 10 358 347 345 357 332 312 301 279 270 269 269 265 262 257 251 251 255 257 259
122 121 112 98 91 84 110 126 115 113 107 100 100 99 112 134 150 165 168 174 187 194 188 186 188 186 186 188 182 175 170 170 184 188 169 152 139 134 139 135 109 93 88 89 90 85 81 75 71 69 69 70 69 68 66 64 61 54 46 39 34 34 34 33 29 18 10 13 22 28 14 4 359 314 291 287 280 272 268 262 250 246 252 257 261
131 126 115 98 88 75 96 120 114 106 98 87 85 86 101 129 141 153 162 166 171 178 177 174 180 182 184 187 179 176 177 176 181 186 181 160 144 146 147 136 120 110 104 98 93 88 82 76 71 68 67 66 67 70 67 63 63 59 51 47 46 43 41 39 28 14 8 10 14 13 7 359 345 329 326 326 312 282 266 259 252 252 254 253 253
136 129 117 97 92 88 99 119 115 102 88 78 74 72 76 100 124 134 145 152 155 163 165 167 172 174 180 188 184 181 183 181 180 183 182 163 154 154 144 135 126 120 119 112 98 87 77 72 68 64 64 65 65 68 71 67 66 65 58 51 49 48 49 47 37 26 24 21 15 11 12 9 358 350 345 339 336 324 295 266 257 259 260 260 260
136 128 118 102 97 101 105 113 109 95 83 77 80 78 76 91 103 110 115 120 131 141 151 158 162 164 168 168 161 156 144 139 152 158 155 152 155 158 147 139 133 131 135 131 114 96 80 71 66 63 61 62 65 66 70 73 69 66 62 53 50 48 46 46 41 33 26 16 2 356 0 1 2 12 17 4 350 338 322 303 292 286 278 278 281
133 122 113 104 101 103 101 96 92 87 84 86 93 88 86 101 97 93 97 96 103 115 125 132 135 138 140 133 126 120 107 105 115 128 141 153 160 161 148 138 140 146 148 144 130 108 88 74 62 63 63 60 64 67 68 72 67 61 56 46 45 46 43 42 40 31 21 11 3 0 354 342 342 353 1 360 346 321 308 303 301 301 296 292 292
132 120 109 107 106 106 102 96 91 90 90 94 100 95 94 104 95 87 92 92 95 103 109 114 114 111 109 105 106 102 96 99 104 117 138 151 154 160 160 151 151 152 145 138 123 103 97 89 69 61 64 67 66 65 68 65 54 55 54 41 34 36 36 32 28 24 20 16 13 12 7 354 346 341 337 333 321 309 302 298 296 297 297 295 293
133 124 114 111 109 108 103 99 95 94 96 98 101 99 95 98 96 92 92 90 95 100 103 106 103 100 100 100 104 100 93 98 100 102 113 128 141 156 168 166 159 152 148 141 121 106 102 100 85 70 61 69 72 65 66 57 42 55 55 37 17 11 12 11 5 2 359 356 357 354 348 345 340 336 334 330 322 314 305 300 298 296 295 296 295
136 129 123 116 112 109 104 101 99 98 100 101 102 104 99 97 101 100 95 93 96 95 97 103 102 102 102 100 103 102 96 95 96 97 103 117 136 155 170 175 172 162 156 145 125 113 100 78 81 79 69 71 75 72 65 49 55 70 58 33 1 346 347 347 339 337 334 330 329 327 325 324 323 322 319 316 315 312 307 302 298 294 291 289 288
143 139 133 126 118 115 111 107 104 102 102 104 108 109 107 107 108 105 100 100 101 98 99 103 103 106 107 105 106 105 101 99 98 100 102 108 120 129 133 142 146 141 143 136 118 103 101 88 73 76 79 77 74 79 75 45 52 77 63 46 6 340 345 351 342 335 328 321 316 312 312 310 309 309 308 307 307 304 302 300 297 296 294 290 288
151 148 144 137 130 125 121 116 111 108 106 107 109 113 114 116 116 114 110 110 109 107 106 107 108 112 112 111 111 107 107 107 104 103 102 101 104 102 98 93 83 79 110 134 123 101 96 99 90 80 80 84 79 85 88 55 46 73 71 54 20 359 358 356 351 348 335 326 320 312 309 307 305 304 302 300 299 298 297 295 294 293 292 292 291
157 156 153 147 142 137 133 128 122 118 116 114 113 116 120 122 123 124 123 122 119 117 117 117 116 120 120 115 114 114 113 111 108 104 99 95 93 92 93 89 84 78 78 106 114 106 95 100 110 103 91 91 80 77 95 71 47 72 83 52 27 22 1 325 333 349 347 332 326 321 317 314 311 308 305 303 300 298 296 293 291 290 288 287 286
161 159 156 153 150 146 142 138 133 128 124 121 119 119 120 122 125 127 130 132 127 125 129 129 128 130 129 124 122 121 119 118 118 116 110 105 101 98 97 94 88 78 73 96 114 118 117 120 124 118 116 130 97 70 78 74 18 42 91 35 15 27 9 305 310 332 345 341 330 328 324 318 317 314 311 310 306 303 301 297 295 291 288 286 283
166 161 159 157 155 151 148 145 141 138 133 128 126 125 124 123 123 126 131 132 128 128 129 130 130 130 130 131 130 126 125 128 133 129 125 128 123 112 104 99 95 85 77 96 116 125 131 141 150 140 126 143 133 86 74 56 2 313 283 299 305 314 350 344 306 310 334 346 337 329 330 326 321 316 311 308 305 303 301 298 296 294 292 289 286
173 167 164 161 159 157 152 150 149 147 144 141 138 137 135 133 133 132 132 132 132 136 139 136 134 132 132 135 136 138 138 139 142 135 134 144 132 115 111 108 107 99 88 86 100 120 132 142 162 167 144 142 203 118 247 267 305 315 302 302 304 290 318 340 326 297 316 339 347 341 343 341 335 331 324 316 308 301 297 295 293 292 291 290 289
182 178 171 168 166 161 158 157 156 155 153 152 150 148 146 145 145 145 146 148 148 149 152 150 146 148 153 154 154 157 154 151 152 147 148 156 139 128 130 126 121 111 100 93 90 106 132 141 144 146 136 172 201 54 325 292 275 292 304 305 303 295 300 324 328 297 307 333 347 345 345 347 347 346 340 329 320 311 303 297 293 290 288 287 287
186 187 181 177 173 169 166 164 161 160 159 159 158 157 156 156 156 158 161 164 168 172 172 169 171 173 174 175 173 175 180 179 175 169 168 172 161 151 151 143 131 120 109 102 97 88 128 143 141 138 140 209 232 275 334 335 321 306 317 324 311 296 298 314 318 302 308 329 340 339 341 344 342 342 342 338 330 320 313 306 297 292 288 286 285
184 187 187 185 180 176 174 169 165 164 161 161 162 162 163 165 166 170 172 174 179 183 185 189 195 198 199 198 192 192 197 196 194 196 189 191 196 184 175 169 142 128 128 124 115 114 193 164 167 188 197 234 286 277 308 339 331 317 325 333 324 309 309 317 319 307 301 316 322 324 330 331 328 331 336 338 333 325 325 321 309 298 290 287 288
185 185 187 188 187 183 178 174 171 167 164 163 162 162 164 166 167 169 173 179 183 186 194 202 206 209 211 209 205 204 204 207 216 221 219 220 221 208 195 197 177 159 169 180 183 205 223 222 238 238 229 243 282 293 309 330 323 319 331 334 327 321 320 322 320 311 298 304 314 318 321 322 323 326 330 331 328 323 328 327 316 305 297 292 292
194 192 189 188 188 186 181 177 173 170 167 165 162 162 163 165 168 172 178 188 195 198 206 212 216 219 220 217 216 214 211 216 220 216 213 221 227 219 208 204 196 192 203 213 226 253 267 271 276 278 281 286 288 298 310 321 324 328 334 329 321 319 321 320 318 312 298 303 314 317 319 320 318 318 320 320 314 310 317 325 321 310 305 303 300
205 203 198 194 191 189 184 180 176 172 170 170 168 165 165 167 172 181 192 207 220 226 228 229 229 229 230 226 223 222 221 225 226 217 209 214 222 222 212 211 219 225 231 233 244 268 280 282 283 284 291 297 300 306 313 322 328 327 325 319 313 315 317 315 315 313 301 303 312 315 316 313 304 301 305 304 295 294 306 321 319 298 299 304 300
212 210 205 199 194 191 186 184 185 186 185 187 186 180 177 176 177 185 207 228 240 245 246 247 242 238 239 235 230 233 236 237 235 231 224 221 223 223 216 217 227 231 238 249 255 269 284 289 290 292 295 300 306 310 313 323 328 321 320 318 313 314 315 313 314 315 309 308 313 313 313 310 300 295 296 293 286 286 295 296 272 274 291 300 298
214 209 205 201 198 198 196 194 197 201 203 203 202 198 194 191 189 194 215 234 245 252 251 248 245 245 243 237 232 236 242 242 240 239 237 227 223 226 227 225 228 223 221 242 256 264 285 290 290 291 295 299 305 306 307 319 326 319 318 315 309 311 314 312 311 312 312 319 317 310 308 307 299 292 293 291 286 283 279 271 272 284 297 303 300
221 216 213 210 208 210 211 210 212 218 220 219 216 212 208 207 210 215 223 236 249 259 256 251 252 254 248 235 222 218 228 240 241 236 235 226 218 223 229 229 227 219 212 220 233 254 297 297 290 289 292 300 309 308 307 318 321 314 309 306 305 307 307 305 303 302 304 313 311 303 301 304 300 293 291 289 287 284 279 278 287 296 303 307 304
232 229 226 223 223 224 224 223 225 227 226 225 223 218 214 216 222 225 226 233 245 255 256 254 253 252 247 234 219 205 213 236 233 212 219 220 213 217 224 224 221 216 212 216 223 243 285 294 289 289 292 304 312 311 305 304 308 307 303 302 304 304 301 298 298 297 299 302 299 294 296 300 301 296 291 290 289 285 282 286 292 295 298 304 306
236 235 233 231 231 231 230 231 232 228 227 229 225 219 221 228 230 223 215 218 236 251 252 249 243 242 239 230 226 212 200 214 202 183 199 214 212 211 211 209 210 210 209 215 225 250 276 275 281 294 303 306 309 310 301 299 301 300 298 299 300 298 295 293 291 290 291 290 284 284 291 298 304 300 293 292 292 287 285 287 289 291 295 300 304
235 234 235 233 232 231 229 231 233 227 225 229 227 223 228 233 226 207 188 189 215 240 242 234 225 227 225 216 218 201 175 178 184 183 194 203 196 189 181 177 181 184 192 208 218 229 233 223 258 287 285 277 282 283 282 289 293 292 292 292 292 289 288 288 287 286 288 285 275 273 283 293 302 299 294 294 293 290 290 289 290 292 294 296 300
232 230 231 231 229 228 225 225 226 223 223 228 227 223 221 216 204 188 180 189 204 218 220 208 192 189 186 183 185 173 165 180 193 190 183 173 167 167 167 164 164 178 202 221 230 231 235 241 255 263 262 265 272 276 279 285 289 293 295 292 289 286 285 287 289 289 290 289 279 275 282 291 298 297 294 294 294 293 292 292 291 290 288 291 297
231 227 229 229 227 224 221 217 214 212 216 217 213 209 201 191 182 176 176 181 187 190 184 169 156 160 164 158 151 153 163 175 178 169 160 157 160 164 166 164 162 175 208 231 241 245 253 263 268 270 270 275 284 290 293 296 297 300 300 293 292 294 291 290 291 292 293 292 288 282 282 288 294 295 295 295 294 292 291 292 293 289 290 296 298
230 226 224 224 224 219 215 213 207 204 212 213 205 196 189 180 171 168 169 168 169 167 155 140 137 153 163 156 143 144 159 158 151 149 151 155 163 166 164 167 172 173 186 215 238 258 273 282 288 291 296 302 304 304 303 302 303 306 296 285 290 295 291 288 290 293 293 291 289 287 283 288 296 298 298 299 296 291 290 292 295 294 297 303 301
221 219 215 214 215 211 207 208 205 203 210 207 195 185 180 174 167 167 170 164 158 155 148 138 129 132 143 145 140 142 151 148 143 147 151 153 163 170 168 178 196 189 172 177 205 243 276 289 296 302 306 308 307 304 299 297 302 307 294 277 283 288 286 287 291 292 291 288 294 301 293 294 301 302 302 304 299 296 297 295 293 293 294 298 297
Height
834 835 836 836 837 837 838 838 838 838 838 839 839 839 840 839 840 841 841 842 842 843 843 844 845 845 846 847 848 849 850 851 851 852 853 854 854 854 854 855 855 856 857 857 858 859 859 860 860 860 860 860 860 860 861 861 861 862 862 862 862 862 862 862 862 862 862 862 862 861 861 862 862 862 862 862 862 861 861 862 861 861 861 861 860
835 835 835 836 837 838 838 838 838 838 838 839 839 839 839 839 840 840 841 842 842 843 843 844 844 845 846 846 847 848 849 850 851 852 852 853 854 854 854 854 855 856 857 857 858 858 859 860 860 860 860 860 861 861 861 861 861 862 862 862 862 862 862 862 862 862 862 862 862 862 862 862 862 862 862 862 862 862 862 862 861 861 861 861 861
836 834 834 836 838 838 838 838 838 838 839 839 838 838 838 839 839 840 841 841 842 842 843 843 844 845 846 846 847 848 849 849 850 851 852 853 853 854 854 854 855 855 856 857 857 858 859 859 860 860 860 860 861 861 861 862 862 862 862 862 862 862 862 862 862 862 862 862 862 862 862 862 861 861 861 861 862 862 862 862 862 861 862 861 861
835 833 834 836 837 837 836 837 837 837 839 839 838 838 838 838 839 840 840 841 841 842 842 843 844 845 845 846 847 848 848 849 850 850 851 852 853 853 854 854 855 855 856 857 857 858 858 859 860 860 860 860 861 861 861 862 862 862 862 862 862 862 862 862 862 862 862 862 862 861 862 862 861 861 861 861 861 861 861 862 862 862 862 862 862
833 832 833 835 836 836 836 836 836 837 838 839 839 839 839 838 839 839 840 840 841 842 842 843 844 844 845 846 846 847 848 849 849 850 851 851 852 853 854 854 855 855 856 856 857 857 858 859 859 860 860 860 860 861 861 861 862 862 862 862 862 862 862 862 862 862 861 861 861 861 862 861 861 861 861 861 861 861 861 861 862 862 862 862 862
831 831 832 833 835 835 835 835 836 836 836 838 839 839 838 838 838 839 839 840 840 841 842 843 844 845 845 846 846 847 848 848 849 850 851 851 852 852 853 854 854 855 856 857 857 857 858 858 859 859 860 860 860 860 861 861 861 862 862 862 862 862 861 861 861 861 861 861 861 861 861 861 861 861 861 861 861 861 861 861 861 861 862 862 862
831 831 831 832 834 834 835 835 835 835 835 836 838 837 837 837 837 838 839 840 840 841 842 843 844 845 846 846 847 848 848 848 849 850 851 851 852 852 853 853 854 855 855 857 857 857 858 858 859 859 859 859 860 860 860 861 861 862 862 862 862 861 861 861 861 861 861 861 861 861 861 861 861 861 861 861 861 861 861 861 861 861 861 862 862
830 830 830 832 833 833 834 834 834 834 835 836 836 836 836 836 837 838 839 840 840 842 842 843 844 845 846 847 847 848 848 849 850 850 851 851 852 852 853 853 854 855 855 856 857 857 857 858 858 859 859 859 859 860 860 861 861 861 862 862 862 861 861 861 861 861 861 861 861 861 861 861 861 861 861 861 861 861 861 860 860 860 861 861 862
829 829 830 831 832 833 833 833 834 834 834 835 836 836 836 836 837 838 839 840 840 841 843 843 844 845 846 847 847 848 849 849 850 850 851 851 851 851 852 853 854 855 856 856 856 856 857 857 858 859 859 859 859 859 860 860 861 861 861 861 862 862 861 861 861 861 861 861 861 862 862 862 861 861 861 861 861 861 861 860 860 860 860 861 861
829 830 830 831 831 832 832 833 833 833 834 835 836 837 837 837 837 838 839 839 840 841 842 843 844 845 846 846 847 847 849 849 849 850 851 851 851 851 852 853 854 855 856 856 856 856 856 857 858 859 858 858 859 859 859 860 860 860 860 860 861 861 861 862 862 862 861 861 861 862 862 862 862 862 861 861 861 860 860 860 860 860 860 860 861
830 831 831 831 831 831 831 832 833 833 834 835 836 836 837 837 838 839 839 839 840 841 842 843 844 845 846 846 847 848 849 849 850 850 851 852 851 851 852 853 854 855 855 856 856 857 857 857 858 858 858 858 858 858 858 859 859 859 859 859 860 861 861 861 861 861 861 861 861 861 861 861 861 861 861 861 860 860 860 860 860 860 860 860 861
830 830 831 831 831 831 831 832 833 834 835 836 836 836 837 838 839 839 839 840 840 841 842 843 843 845 846 847 848 848 849 850 850 851 852 852 851 851 852 853 854 855 855 855 856 856 856 857 857 858 857 857 858 858 858 858 859 859 859 859 860 860 860 861 860 860 859 859 860 860 860 861 861 861 861 861 861 860 860 860 860 860 859 860 860
830 831 831 831 831 831 831 832 833 834 835 835 836 837 837 838 839 839 839 839 840 841 842 842 843 844 846 847 848 849 849 850 851 851 852 852 851 851 851 852 854 854 855 855 855 855 855 856 856 856 857 857 857 858 858 858 858 859 859 859 859 859 859 859 859 858 858 858 858 859 860 860 860 860 861 861 861 861 860 860 859 859 859 859 859
831 831 832 832 831 831 831 832 833 833 835 835 836 836 837 838 839 839 839 839 840 840 841 842 842 843 843 844 846 848 849 850 851 851 851 852 851 851 852 852 853 854 855 855 855 856 856 856 856 856 856 857 858 858 858 858 858 859 858 858 858 858 858 858 858 858 857 857 858 858 859 859 859 859 860 860 860 860 860 860 859 859 858 858 858
832 832 832 832 833 832 832 832 833 834 835 835 836 836 837 838 838 839 839 839 839 840 841 841 841 841 842 843 843 845 848 848 850 852 851 852 852 851 852 852 853 854 854 855 856 856 856 856 856 856 857 857 857 858 858 858 858 858 858 857 857 857 857 857 857 857 857 857 857 858 858 858 858 858 859 859 859 859 859 859 858 858 858 858 857
833 833 833 833 833 833 833 834 834 834 835 835 836 836 837 837 838 838 838 838 839 840 841 841 841 841 841 842 841 844 849 847 847 851 851 851 852 851 852 852 853 854 854 855 856 856 856 856 856 857 857 857 858 858 858 858 857 857 857 857 856 856 856 856 856 856 856 855 855 856 857 857 857 857 858 858 858 857 857 857 857 857 857 857 857
833 834 834 833 834 833 833 834 834 834 835 835 836 836 836 837 837 838 838 838 839 839 840 841 841 841 840 841 841 845 848 846 846 850 851 851 851 852 853 853 853 854 854 855 856 856 856 857 857 857 857 858 858 858 858 858 857 857 857 856 856 856 855 855 855 855 854 854 854 854 855 856 856 856 856 856 855 855 855 856 856 856 857 857 856
834 834 834 834 834 834 834 834 834 834 834 835 835 836 836 837 837 838 838 838 839 839 840 840 841 841 841 842 844 845 845 844 844 848 851 852 852 852 853 854 854 854 855 856 856 857 857 857 857 858 858 858 858 858 858 857 857 857 857 856 856 856 855 855 854 854 853 852 853 853 854 855 855 855 854 853 852 853 854 854 855 855 856 856 856
834 834 834 834 834 834 834 834 834 834 834 834 835 835 836 836 837 837 837 838 838 838 839 840 841 841 842 843 844 844 844 843 842 845 849 851 853 854 855 855 855 855 856 857 857 858 858 858 858 858 859 859 859 859 859 858 857 857 856 856 856 856 855 855 854 853 852 852 852 852 852 853 853 853 852 851 851 852 852 853 854 855 855 855 855
834 835 835 835 835 835 835 835 835 835 834 834 835 835 836 836 837 837 837 837 838 838 838 840 840 841 842 843 843 843 844 843 842 842 845 849 853 855 856 857 857 857 858 858 859 859 859 859 859 859 860 860 860 860 860 859 858 857 857 857 856 856 855 854 853 852 852 852 852 852 852 851 851 851 850 850 851 851 851 853 855 855 855 855 855
835 835 835 835 835 835 835 835 835 835 835 835 835 835 836 836 837 837 838 838 838 838 838 839 839 840 842 843 843 843 843 844 844 843 843 847 851 854 857 859 858 858 859 859 860 861 861 861 861 861 861 861 861 861 861 860 859 858 858 857 856 856 855 853 852 852 852 852 852 852 851 850 850 850 850 849 850 850 850 852 853 853 853 853 854
835 835 836 836 836 836 836 836 836 836 836 836 836 836 836 837 837 837 838 838 838 838 838 839 840 840 841 842 842 842 843 844 844 844 843 845 849 852 855 857 857 859 860 861 861 861 862 862 862 862 862 862 862 862 861 860 859 858 858 857 857 856 855 854 853 852 852 852 851 851 850 849 849 849 849 848 848 849 849 849 849 850 851 852 852
835 835 836 836 836 836 836 836 836 837 837 837 837 837 837 837 837 837 838 839 839 839 839 840 840 841 841 841 842 842 842 843 844 844 844 845 847 850 852 854 856 859 861 862 862 862 862 863 863 863 863 863 863 863 862 860 859 859 859 858 857 856 855 854 853 853 852 852 851 851 851 850 849 848 848 848 847 848 848 848 847 848 850 850 849
835 836 836 836 836 836 837 836 837 837 838 838 838 838 838 838 838 838 839 839 839 840 841 841 842 842 842 842 842 843 843 843 844 845 845 846 848 849 850 852 855 858 861 862 862 863 863 863 864 864 864 864 864 864 863 862 861 860 860 859 858 857 856 855 854 853 852 852 852 852 851 850 850 849 849 849 848 848 848 847 847 848 848 848 847
835 836 836 837 837 837 837 837 837 838 838 839 839 839 839 839 839 839 840 840 840 841 842 842 843 843 844 844 844 844 844 844 845 845 846 847 848 849 849 852 855 857 860 861 862 863 864 864 865 865 865 865 865 865 864 864 862 861 861 860 859 857 857 856 855 854 853 853 852 852 852 851 851 850 850 850 849 848 848 847 847 848 848 847 846
835 836 836 837 837 837 837 838 838 839 839 840 840 841 841 841 841 841 841 842 842 842 843 843 844 844 845 845 845 845 845 846 846 846 847 848 849 849 850 852 855 856 858 859 861 862 864 865 866 866 866 866 866 866 865 865 864 862 862 861 860 858 858 857 856 856 855 854 853 852 852 852 851 851 850 849 849 849 848 847 847 846 846 846 845
835 836 837 837 837 838 838 839 839 840 840 841 841 842 842 842 843 843 843 844 844 844 844 845 845 846 846 846 846 846 847 847 847 847 848 849 849 851 851 853 855 856 856 858 860 862 864 866 866 866 866 866 866 866 865 865 864 863 863 862 861 859 859 858 857 857 856 855 854 853 853 852 852 851 850 849 849 848 847 847 846 846 845 845 844
834 836 837 837 837 838 839 839 840 841 841 842 842 843 843 844 844 844 845 845 845 846 846 846 847 847 847 847 847 848 848 849 849 849 850 850 851 853 853 853 854 855 857 858 860 863 864 865 865 866 866 866 866 866 865 865 864 863 864 863 861 860 860 859 858 857 857 856 855 854 853 853 852 851 850 849 848 848 847 846 845 845 844 844 844
834 835 837 837 838 838 839 840 840 841 842 842 843 843 844 845 845 846 846 847 847 847 847 848 848 848 849 849 849 850 850 851 851 851 852 853 853 854 854 853 852 853 855 857 859 862 864 864 865 866 867 866 866 866 865 865 864 864 864 864 862 861 860 859 858 858 857 856 855 854 853 853 852 851 850 849 848 847 847 846 845 844 844 843 843
834 836 837 837 838 839 840 840 841 842 842 843 844 844 845 846 846 847 847 848 848 848 849 849 850 850 851 851 851 852 852 853 853 853 854 854 854 854 854 854 853 852 852 855 859 862 864 865 865 866 866 866 866 866 865 865 864 863 864 863 862 861 860 859 858 857 856 856 855 854 853 852 851 850 849 849 848 847 846 845 845 844 843 843 842
835 836 837 838 838 839 840 841 842 842 843 844 845 845 846 847 847 848 849 849 850 850 851 851 851 852 852 853 853 854 854 855 855 855 855 855 855 855 855 855 855 855 854 854 858 862 864 865 866 866 866 866 866 865 865 865 863 863 864 863 862 860 859 859 858 857 856 855 854 853 852 851 850 849 848 848 847 846 845 845 844 843 842 842 841
835 836 837 838 838 839 840 842 842 843 844 844 845 846 847 848 848 849 849 850 850 851 852 852 853 853 854 854 855 855 856 856 856 856 856 857 856 856 857 857 857 857 857 856 858 863 865 866 866 867 866 866 866 866 866 865 864 863 864 863 862 861 860 859 858 857 856 854 853 853 852 850 850 849 848 847 846 845 844 843 842 842 841 840 839
834 836 837 838 839 839 840 842 843 843 844 845 846 847 847 848 849 849 850 850 851 851 852 853 853 854 855 855 856 856 856 857 857 857 857 858 858 858 858 858 859 859 859 858 860 863 865 866 866 866 866 866 866 866 866 866 865 864 864 863 862 861 861 860 858 856 855 854 853 852 851 850 849 848 847 846 844 843 842 841 840 840 839 838 838
834 835 836 837 838 839 840 841 842 843 844 845 846 847 848 848 849 849 850 850 851 851 852 853 854 855 855 856 856 857 857 857 857 858 858 858 858 858 859 859 860 860 860 859 860 862 864 865 866 866 866 866 866 866 866 865 865 864 864 863 862 862 861 860 858 857 855 854 853 851 850 849 848 847 846 844 843 842 841 840 839 838 837 836 835
834 835 836 836 838 839 839 841 842 843 844 845 846 846 847 848 849 849 850 851 851 852 852 853 854 855 856 856 857 857 857 858 858 858 858 859 858 859 860 860 860 861 861 861 860 861 863 864 865 865 866 866 866 865 865 865 864 864 863 863 862 861 860 859 858 857 855 853 852 851 850 848 847 845 844 843 842 840 839 838 837 836 835 834 833
833 834 835 836 837 838 838 840 841 842 843 844 845 846 847 848 848 849 850 851 851 852 852 853 854 854 855 856 857 858 858 858 858 858 859 859 859 859 860 861 861 861 862 861 861 861 862 863 864 864 865 865 865 865 865 864 863 863 862 862 861 861 860 859 858 856 854 852 850 849 848 847 845 844 843 841 840 839 837 836 835 834 833 832 830
832 833 834 835 836 837 837 839 840 841 842 843 845 846 847 847 848 849 850 850 851 852 852 853 853 854 855 856 857 857 858 858 859 859 859 859 859 860 860 860 861 862 862 862 862 862 861 862 863 864 864 864 864 864 864 863 863 862 861 861 860 859 858 857 856 855 852 850 848 847 845 844 843 842 841 840 838 837 836 834 833 832 831 829 828
831 832 833 834 835 836 837 837 839 840 841 842 843 845 846 847 848 848 849 850 851 851 852 853 853 854 854 855 856 857 857 858 859 859 859 859 860 860 860 860 861 862 862 862 862 862 862 862 863 863 863 864 863 863 863 863 862 861 861 860 859 858 857 856 855 854 852 850 848 846 845 844 842 840 839 837 836 835 834 833 831 830 829 827 826
829 830 832 833 834 835 835 836 837 838 839 841 842 843 845 846 847 848 848 849 850 851 851 852 852 853 853 854 855 855 856 857 858 859 859 860 860 860 860 861 861 861 862 862 862 862 862 862 862 862 862 863 863 863 862 862 861 860 860 860 858 857 857 855 854 852 851 849 848 846 844 842 840 839 837 835 834 833 832 831 829 828 827 826 824
828 829 830 831 832 833 834 835 836 837 838 839 840 842 843 844 846 846 847 848 849 850 850 850 851 851 852 853 853 854 855 855 856 857 859 860 860 860 860 861 861 861 861 861 861 861 861 861 861 861 861 861 861 862 862 861 860 860 860 859 858 857 855 854 853 851 850 848 847 845 843 841 839 837 836 834 832 830 830 829 827 826 825 824 823
827 827 828 829 830 831 832 833 834 835 837 838 838 839 841 842 844 845 846 847 847 848 848 849 849 849 850 851 852 852 853 853 854 856 857 858 859 859 860 860 861 861 861 861 860 860 860 859 859 859 860 859 858 860 861 861 860 860 860 859 858 856 854 853 851 850 848 847 846 844 843 841 839 837 835 834 831 829 828 828 826 824 823 822 821
825 826 827 828 828 829 830 831 832 833 834 835 836 836 838 839 841 842 844 845 846 846 847 847 847 847 848 849 849 850 851 851 852 853 855 856 857 858 859 859 860 861 860 860 859 859 859 858 858 859 859 858 859 861 862 860 860 860 859 858 857 855 853 851 849 848 847 846 844 842 841 839 837 835 834 833 831 829 828 827 825 823 822 820 819
823 824 825 826 827 828 829 829 830 830 832 833 834 835 835 836 838 840 841 843 843 844 845 845 845 845 845 846 847 848 848 849 850 851 852 853 855 856 857 858 859 859 860 860 859 859 859 859 859 860 859 859 859 861 861 860 860 859 858 858 856 854 853 851 849 847 846 845 843 841 838 837 836 834 832 831 829 827 826 825 823 822 820 819 817
822 823 823 824 825 827 827 828 828 828 829 831 832 834 834 834 835 837 838 840 841 842 843 843 843 843 844 844 844 846 846 847 848 849 850 851 852 854 855 856 857 858 859 859 859 859 860 859 859 860 859 859 859 860 861 860 859 859 858 857 855 853 852 851 849 846 845 845 843 839 836 835 834 832 829 828 827 825 824 822 820 819 818 817 815
820 821 821 822 823 824 825 826 826 827 827 828 830 832 832 832 833 834 836 837 838 839 840 841 841 842 842 842 842 844 845 845 846 848 848 849 850 852 853 855 856 857 857 858 858 859 860 860 860 860 860 860 860 860 860 859 859 858 857 855 854 853 852 850 848 846 844 843 841 838 835 833 832 830 828 826 825 823 821 819 817 816 815 814 813
818 819 819 820 820 821 822 823 824 825 825 826 828 830 830 830 830 832 834 834 835 837 839 840 840 840 840 840 841 842 843 844 845 846 847 847 848 850 852 854 855 856 857 857 858 859 859 860 860 860 860 860 860 859 859 859 858 858 856 855 853 852 850 848 846 844 842 841 839 837 834 831 830 828 826 824 823 821 819 818 815 814 812 812 811
816 817 817 817 818 819 820 821 821 822 823 823 825 827 828 829 829 830 831 831 834 837 839 838 838 838 838 839 839 841 842 843 844 844 845 846 847 850 852 853 855 856 856 857 857 858 858 859 859 859 859 859 859 859 858 858 857 856 855 854 852 850 848 845 843 841 839 838 837 836 832 829 829 827 824 822 821 819 817 816 813 812 810 809 808
814 814 815 815 816 816 817 818 819 820 821 821 822 824 825 826 827 828 829 830 832 837 838 837 837 837 837 838 839 840 841 841 842 843 844 845 847 849 851 853 854 854 855 855 856 856 857 857 857 858 857 857 857 856 856 856 855 855 853 852 850 848 846 843 840 838 837 836 835 834 831 828 827 825 822 820 819 817 815 814 811 809 808 807 807
811 812 813 813 814 814 815 816 817 818 819 819 820 821 823 824 825 826 828 829 832 835 836 836 836 836 836 837 838 839 839 840 841 842 843 845 847 849 850 852 853 853 854 854 854 855 855 855 855 856 855 855 854 854 853 853 852 852 851 850 848 846 844 841 838 836 835 834 833 832 830 827 826 824 820 818 817 815 812 811 810 808 806 805 804
810 810 811 811 812 813 813 814 815 816 817 817 818 820 822 823 825 825 827 829 831 833 834 834 835 835 835 836 837 838 839 839 840 842 843 845 847 848 850 851 852 853 853 853 854 854 854 854 854 853 853 852 852 851 850 850 849 849 849 848 846 845 843 840 837 835 834 832 831 830 829 826 824 823 820 816 814 812 810 809 808 807 805 803 801
808 809 809 810 811 811 811 812 813 814 814 815 817 819 821 822 824 824 826 827 829 831 832 833 835 835 835 836 837 838 839 840 841 842 843 845 847 848 849 850 851 852 853 853 853 853 853 853 852 852 851 850 850 849 848 847 847 847 846 846 845 844 842 839 837 835 832 830 829 829 827 825 823 822 820 816 812 809 809 808 806 805 804 802 801